www.pogodaiklimat.ru

Погода и климат >> Архив погоды >> Россия >> Ненецкий АО >> Мыс Константиновский


ПОГОДА на Мысе Константиновском

  • Прогноз погоды на Мысе Константиновском
  • Монитор погоды на Мысе Константиновском

АРХИВ ПОГОДЫ на Мысе Константиновском

Время (UTC), дата Ветер
(напр.,м/с)
 
Видим.   Явления Облачность Т
(С)
Тd
(С)
f
(%)
Тe
(С)
Тes
(С)
Комфортность P
(гПа)
Po
(гПа)
Тmin
(С)
Tmax
(С)
R
(мм)
R24
(мм)
S
(см)
21 14.03 Ю 7 20 км позёмок ясно -17.1 -18.3 90 -28 -28 1014.6 1013.8
00 15.03 Ю 7 20 км позёмок ясно -17.8 -19.0 90 -29 -29 1014.9 1014.1
03 15.03 Ю 7 20 км позёмок ясно -16.5 -18.4 85 -27 -27 1014.6 1013.8 -18.9 57
06 15.03 Ю 7 20 км позёмок ясно -14.9 -16.9 85 -25 -25 1014.7 1013.9
09 15.03 Ю 8
{10}
20 км позёмок ясно -12.2 -14.2 85 -22 -22 1014.9 1014.1
12 15.03 Ю 8
{10}
20 км позёмок ясно -11.6 -13.6 85 -22 -21 1014.3 1013.5
15 15.03 Ю 5 20 км {метель} ясно -15.3 -17.3 85 -24 -24 1014.3 1013.5 -11.3
18 15.03 Ю 8
{10}
20 км позёмок ясно -14.3 -16.3 85 -25 -25 1013.9 1013.1
21 15.03 Ю 8
{11}
10 км позёмок ясно -14.3 -16.3 85 -25 -25 1013.4 1012.6
00 16.03 Ю 7
{10}
20 км позёмок ясно -15.4 -17.3 85 -26 -26 1012.7 1011.9
03 16.03 Ю 7 20 км позёмок ясно -14.6 -16.6 85 -25 -25 1012.1 1011.3 -15.6 57
06 16.03 Ю 8
{10}
10 км позёмок 9/6 300 м
[Sc Ac trans]
-12.1 -14.1 85 -22 -22 1011.5 1010.7
09 16.03 Ю 10-11
{13}
10 км метель 8/5 300 м
[Sc Ac trans]
-9.5 -11.1 88 -20 -20 1010.5 1009.7
12 16.03 Ю 10-12
{14}
2000 м метель 8/8 300 м
[Sc]
-7.8 -9.2 90 -18 -18 1010.6 1009.8
15 16.03 Ю 8
{13}
10 км позёмок 10/10 300 м
[Sc]
-6.0 -7.5 89 -15 -15 1010.9 1010.1 -6.0
18 16.03 ЮЗ 8-10
{11}
10 км позёмок 10/10 300 м
[Sc]
-4.3 -5.2 93 -13 -13 1011.2 1010.4
21 16.03 Ю 8
{11}
4000 м слаб. ливневой снег {метель} 10/10 300 м
[Cb cap]
-3.8 -4.6 94 -12 -12 1011.9 1011.1
00 17.03 ЮЗ 8-10
{11}
4000 м слаб. ливневой снег {метель} 10/10 300 м
[Cb cap]
-3.3 -4.0 95 -12 -12 1013.0 1012.2
03 17.03 Ю 8-10
{11}
10 км позёмок {ливн. осадки} 10/10 300 м
[Sc]
-4.1 -5.0 93 -13 -13 1013.6 1012.8 -6.0 0.3 57
06 17.03 Ю 8
{11}
10 км позёмок {ливн. осадки} 6/4 600 м
[Sc Cs]
-5.1 -6.5 90 -14 -14 1014.3 1013.5
09 17.03 Ю 9-10
{11}
20 км сильный позёмок 3/0
[Cs]
-5.4 -6.8 90 -15 -15 1015.3 1014.5
12 17.03 Ю 8
{10}
20 км позёмок 4/0
[Cs]
-6.3 -8.2 86 -15 -15 1015.5 1014.7
15 17.03 Ю 7 10 км позёмок 8/5 300 м
[Sc Ac trans]
-7.1 -8.8 88 -16 -16 1015.7 1014.9 -4.0
18 17.03 Ю 7 10 км позёмок 6/3 600 м
[Sc Cs]
-6.2 -7.7 89 -15 -15 1015.4 1014.6
21 17.03 Ю 7 10 км 9/3 600 м
[Sc Ac trans]
-6.4 -8.0 88 -15 -15 1015.0 1014.2
00 18.03 ЮЗ 7 10 км позёмок 9/6 600 м
[Sc Ac trans]
-5.6 -7.4 87 -14 -14 1014.9 1014.1
03 18.03 ЮЗ 7 10 км позёмок 10/10 300 м
[Sc]
-4.9 -6.2 91 -13 -13 1015.2 1014.4 -8.0 57
06 18.03 ЮЗ 7
{10}
10 км позёмок 10/10 300 м
[Sc]
-3.8 -5.0 91 -12 -12 1015.5 1014.7
09 18.03 ЮЗ 8-10
{10}
10 км позёмок 10/10 600 м
[Sc]
-2.9 -3.9 93 -11 -11 1016.5 1015.7
12 18.03 ЮЗ 8-10
{10}
10 км позёмок 10/10 600 м
[Sc]
-2.5 -3.4 94 -11 -11 1016.8 1016.0
15 18.03 ЮЗ 8
{10}
10 км позёмок 10/10 600 м
[Sc]
-2.8 -3.5 95 -11 -11 1017.2 1016.4 -2.5
18 18.03 ЮЗ 7 10 км позёмок 10/10 300 м
[Sc]
-2.4 -3.6 91 -10 -10 1017.1 1016.3
21 18.03 Ю 7
{11}
10 км {метель} 10/10 300 м
[Sc]
-1.9 -3.1 91 -10 -10 1016.7 1015.9
00 19.03 Ю 8
{10}
10 км {метель} 10/10 300 м
[Sc]
-1.5 -2.3 94 -10 -10 1015.4 1014.6
03 19.03 Ю 8 10 км 10/10 300 м
[Sc]
-2.5 -3.4 94 -11 -11 1013.7 1012.9 -2.8 57
06 19.03 Ю 8-10
{11}
4000 м слаб. ливневой снег {метель} 10/10 300 м
[Cb cap]
-1.6 -2.4 94 -10 -10 1012.4 1011.6
09 19.03 Ю 11-12
{15}
2000 м метель {ливн. осадки} 10/10 300 м
[Sc]
-0.9 -1.6 95 -10 -10 1010.8 1010.0
12 19.03 Ю 12-14
{16}
200 м слаб. ливневой снег {метель} 10/10 300 м
[Cb cap]
-0.3 -0.9 96 -9 -9 1008.5 1007.7
15 19.03 Ю 11-14
{15}
4000 м слаб. снег 10/10 300 м
[Frnb Ns]
+0.1 -0.2 98 -9 -9 1006.7 1005.9 +0.1 0.7
18 19.03 ЮЗ 12-15
{16}
10 км {ливн. осадки, снег} 9/9 300 м
[Sc]
+0.7 +0.2 96 -8 -8 1005.5 1004.7
21 19.03 ЮЗ 11-13
{17}
4000 м дымка 10/10 300 м
[St]
+0.4 +0.1 98 -8 -8 1006.0 1005.2
00 20.03 ЮЗ 8
{15}
10 км 9/9 300 м
[Sc]
-0.7 -1.4 95 -9 -9 1005.5 1004.7
03 20.03 ЮЗ 7 10 км 10/10 300 м
[Sc]
+0.1 -0.3 97 -7 -7 1004.9 1004.1 -0.9 0.2 56
06 20.03 ЮЗ 7 10 км 10/10 300 м
[Sc]
+0.2 -0.4 96 -7 -7 1004.1 1003.3
09 20.03 ЮЗ 7 10 км 10/10 300 м
[Sc]
+0.4 -0.2 96 -7 -7 1003.2 1002.4
12 20.03 ЮЗ 6 4000 м слаб. ливневой снег 10/10 300 м
[Cb cap]
+0.3 -0.3 96 -6 -6 1002.6 1001.8
15 20.03 ЮЗ 5 10 км {ливн. осадки} 6/3 300 м
[Sc Ac trans]
-0.8 -2.1 91 -7 -7 1001.9 1001.1 +0.5 0.3
18 20.03 ЮЗ 4 10 км {ливн. осадки} 9/9 300 м
[Sc]
-1.5 -2.3 94 -7 -7 1001.3 1000.5
21 20.03 ЮЗ 5 4000 м слаб. ливневой снег 10/10 300 м
[Cb cap]
-1.9 -2.4 96 -9 -9 1000.5 999.7
00 21.03 З 3 4000 м слаб. ливневой снег 9/9 300 м
[Cb cap]
-2.7 -3.4 95 -8 -8 1000.4 999.6
03 21.03 З 5 4000 м слаб. ливневой снег 9/9 300 м
[Cb cap]
-2.3 -2.9 96 -9 -9 1000.7 999.9 -2.8 0.2 56
06 21.03 З 6 10 км {ливн. осадки} 9/9 600 м
[Sc]
-2.4 -3.3 94 -10 -10 1001.0 1000.2
09 21.03 З 4 10 км 10/10 300 м
[Sc]
-2.6 -3.6 93 -9 -9 1002.0 1001.2
12 21.03 СЗ 3 10 км 10/10 300 м
[Sc]
-3.6 -4.4 94 -9 -9 1003.1 1002.3
15 21.03 З 3 4000 м слаб. ливневой снег 9/8 300 м
[Cb cap Ac trans]
-5.1 -6.1 93 -11 -11 1004.1 1003.3 -1.8 0.5
18 21.03 З 4 4000 м слаб. ливневой снег 10/10 300 м
[Cb cap]
-6.1 -6.9 94 -13 -13 1004.9 1004.1

 

Местоположение метеостанции Мыс Константиновский (Ненецкий АО, Россия): широта 68.55 долгота 55.50 высота над уровнем моря 7 м.

В архиве по умолчанию представлена погода на Мысе Константиновском за последнюю неделю. Архивные данные за месяц целиком и за предыдущие месяцы, начиная с января 2011 года, Вы можете получить, выбрав интересующий диапазон дат из раскрывающегося списка и нажав кнопку "Ввод!".


*Определитесь, кто Вы:
робот инопланетянин человек

Внимание! Время в таблицах - всемирное. Для получения местного времени необходимо прибавить поправку, которая равна 3 ч.

Смотрите также архив погоды в соседних городах и на ближайших метеорологических станциях:

Погода в Ходоварихе (Ненецкий АО, Россия) (82 км)
Погода в Варандее (Ненецкий АО, Россия) (106 км)
Погода в Нарьян-Маре (Ненецкий АО, Россия) (145 км)
Погода в Хорей-Вере (Ненецкий АО, Россия) (163 км)
Погода в Сенгейском Шаре (Ненецкий АО, Россия) (173 км)
Погода на Мысе Белый Нос (Ненецкий АО, Россия) (220 км)
Погода в Коткино (Ненецкий АО, Россия) (250 км)
Погода в Бугрино (Ненецкий АО, Россия) (251 км)
Погода в Имени Федорова (Ненецкий АО, Россия) (253 км)
Погода в Харуте (Ненецкий АО, Россия) (254 км)

Пояснения к столбцам:

Ветер - указаны скорость ветра в м/с - средняя за 10 мин, порывы в срок и между сроками (в фигурных скобках) и направление, откуда дует ветер: С - северный, СВ - северо-восточный, В - восточный, ЮВ - юго-восточный, Ю - южный, ЮЗ - юго-западный, З - западный, СЗ - северо-западный.
Видимость - горизонтальная дальность видимости в метрах или километрах. При видимости от 1 до 10 км при отсутствии осадков обычно наблюдается дымка, при ухудшении видимости до 1 км и менее - туман. В сухую погоду видимость может ухудшаться дымом, пылью или мглою.
Явления - указаны атмосферные явления, наблюдавшиеся в срок или в последний час перед сроком; фигурными скобками обозначены явления, наблюдавшиеся между сроками (за 1-3 часа до срока); квадратными скобками обозначены град или гололедные отложения с указанием их диаметра в мм.
Облачность - указаны через наклонную черту общая и нижняя облачность в баллах и высота нижней границы облаков в метрах; квадратными скобками обозначены формы облаков: Ci - перистые, Cs - перисто-слоистые, Cc - перисто-кучевые, Ac - высококучевые, As - высокослоистые, Sc - слоисто-кучевые, Ns - слоисто-дождевые, Cu - кучевые, Cb - кучево-дождевые. Подробнее классификацию облаков см. в Атласе облаков (PDF).
T - Температура воздуха - температура, измеренная на высоте 2 м над землей.
Td - Температура точки росы - температура, при понижении до которой содержащийся в воздухе водяной пар достигнет насыщения.
f - Относительная влажность воздуха - влажноcть воздуха, измеренная на высоте 2 м над землей.
Te - Эффективная температура - температура, которую ощущает одетый по сезону человек в тени. Характеристика душности погоды. При расчете учитывается влияние влажности воздуха и скорости ветра на теплоощущения человека.
Tes - Эффективная температура на солнце - температура, которую ощущает человек, с поправкой на солнечный нагрев. Характеристика знойности погоды. Зависит от высоты солнца над горизонтом, облачности и скорости ветра. Ночью, в пасмурную погоду, а также при ветре 12 м/с и более поправка равна нулю.
P - Атмосферное давление - приведенное к уровню моря атмосферное давление.
Po - Атмосферное давление - измеренное на уровне метеостанции атмосферное давление.
Tmin - Минимальная температура - минимум температуры воздуха на высоте 2 м над землей.
Tmax - Максимальная температура - максимум температуры воздуха на высоте 2 м над землей.
R - Количество осадков - Количество выпавших осадков за период времени, мм. При наведении курсора мыши на число - период времени, за который выпало указанное количество осадков.
R24 - Количество осадков - Количество выпавших осадков за 24 часа, мм.
S - Снежный покров - Высота снежного покрова, см. При наведении курсора мыши на число - состояние снежного покрова и степень покрытия местности в баллах.